Time,TemperatureF,DewpointF,PressureIn,WindDirection,WindDirectionDegrees,WindSpeedMPH,WindSpeedGustMPH,Humidity,HourlyPrecipIn,Conditions,Clouds,dailyrainin,SoftwareType,DateUTC
2017-07-26 00:04:00,80.0,76.3,30.00,East,90,3.6,7.8,89,0.00,,,0.00,Arduino-ESP8266,2017-07-26 04:04:00,
2017-07-26 00:10:00,80.1,76.5,30.00,East,85,2.1,5.0,90,0.00,,,0.00,Arduino-ESP8266,2017-07-26 04:10:00,
2017-07-26 00:17:00,80.1,76.5,29.99,East,85,3.9,7.5,89,0.00,,,0.00,Arduino-ESP8266,2017-07-26 04:17:00,
2017-07-26 00:24:00,80.1,76.5,29.99,East,85,4.1,6.2,89,0.00,,,0.00,Arduino-ESP8266,2017-07-26 04:24:00,
2017-07-26 00:29:00,80.1,76.3,29.99,East,81,4.9,10.2,89,0.00,,,0.00,Arduino-ESP8266,2017-07-26 04:29:00,
2017-07-26 00:35:00,80.1,76.4,29.99,East,94,2.5,4.3,89,0.00,,,0.00,Arduino-ESP8266,2017-07-26 04:35:00,
2017-07-26 00:40:00,80.0,76.3,29.99,East,85,3.0,5.0,89,0.00,,,0.00,Arduino-ESP8266,2017-07-26 04:40:00,
2017-07-26 00:47:00,79.9,76.2,29.99,ESE,103,2.0,4.0,89,0.00,,,0.00,Arduino-ESP8266,2017-07-26 04:47:00,
2017-07-26 00:52:00,79.9,76.3,29.99,East,98,2.7,4.7,89,0.00,,,0.00,Arduino-ESP8266,2017-07-26 04:52:00,
2017-07-26 01:01:00,79.9,76.2,29.98,East,90,4.8,9.6,89,0.00,,,0.00,Arduino-ESP8266,2017-07-26 05:01:00,
2017-07-26 01:06:00,79.9,76.2,29.98,ENE,76,4.1,8.4,89,0.00,,,0.00,Arduino-ESP8266,2017-07-26 05:06:00,
2017-07-26 01:12:00,80.0,76.3,29.98,East,90,2.7,5.6,89,0.00,,,0.00,Arduino-ESP8266,2017-07-26 05:12:00,
2017-07-26 01:17:00,80.0,76.3,29.98,East,85,2.4,6.2,89,0.00,,,0.00,Arduino-ESP8266,2017-07-26 05:17:00,
2017-07-26 01:29:00,80.1,76.5,29.98,East,90,4.5,9.9,90,0.00,,,0.00,Arduino-ESP8266,2017-07-26 05:29:00,
2017-07-26 01:34:00,80.1,76.5,29.97,East,90,3.0,5.6,90,0.00,,,0.00,Arduino-ESP8266,2017-07-26 05:34:00,
2017-07-26 01:41:00,79.9,76.2,29.97,East,81,2.9,5.3,89,0.00,,,0.00,Arduino-ESP8266,2017-07-26 05:41:00,
2017-07-26 01:46:00,79.9,76.3,29.97,East,98,3.2,7.8,90,0.00,,,0.00,Arduino-ESP8266,2017-07-26 05:46:00,
2017-07-26 01:52:00,79.9,76.6,29.97,East,94,2.1,3.4,90,0.00,,,0.00,Arduino-ESP8266,2017-07-26 05:52:00,
2017-07-26 01:57:00,80.0,76.6,29.97,East,94,1.9,4.0,90,0.00,,,0.00,Arduino-ESP8266,2017-07-26 05:57:00,
2017-07-26 02:02:00,79.9,76.5,29.97,SE,135,1.3,2.5,90,0.00,,,0.00,Arduino-ESP8266,2017-07-26 06:02:00,
2017-07-26 02:09:00,79.9,76.5,29.97,East,81,3.6,6.5,90,0.00,,,0.00,Arduino-ESP8266,2017-07-26 06:09:00,
2017-07-26 02:15:00,79.9,76.4,29.96,East,90,3.8,6.2,90,0.00,,,0.00,Arduino-ESP8266,2017-07-26 06:15:00,
2017-07-26 02:20:00,79.9,76.3,29.96,East,94,4.0,7.5,89,0.00,,,0.00,Arduino-ESP8266,2017-07-26 06:20:00,
2017-07-26 02:25:00,79.9,76.2,29.96,East,94,3.6,8.7,89,0.00,,,0.00,Arduino-ESP8266,2017-07-26 06:25:00,
2017-07-26 02:32:00,80.0,76.2,29.96,East,90,2.9,7.5,89,0.00,,,0.00,Arduino-ESP8266,2017-07-26 06:32:00,
2017-07-26 02:37:00,80.0,76.2,29.96,East,85,3.7,6.8,89,0.00,,,0.00,Arduino-ESP8266,2017-07-26 06:37:00,
2017-07-26 02:42:00,80.0,76.2,29.96,East,90,4.3,6.5,89,0.00,,,0.00,Arduino-ESP8266,2017-07-26 06:42:00,
2017-07-26 02:49:00,80.1,76.2,29.96,East,90,1.8,4.7,89,0.00,,,0.00,Arduino-ESP8266,2017-07-26 06:49:00,
2017-07-26 03:01:00,80.0,76.1,29.95,ENE,58,1.8,3.7,88,0.00,,,0.00,Arduino-ESP8266,2017-07-26 07:01:00,
2017-07-26 03:06:00,80.1,76.2,29.95,East,85,3.1,5.9,89,0.00,,,0.00,Arduino-ESP8266,2017-07-26 07:06:00,
2017-07-26 03:13:00,80.0,76.3,29.95,ESE,103,4.7,8.4,89,0.00,,,0.00,Arduino-ESP8266,2017-07-26 07:13:00,
2017-07-26 03:20:00,79.8,76.0,29.95,ESE,102,5.0,8.7,89,0.02,,,0.02,Arduino-ESP8266,2017-07-26 07:20:00,
2017-07-26 03:25:00,78.7,75.2,29.95,East,90,3.7,5.9,90,0.03,,,0.03,Arduino-ESP8266,2017-07-26 07:25:00,
2017-07-26 03:31:00,77.9,75.1,29.95,East,90,2.2,5.3,92,0.03,,,0.03,Arduino-ESP8266,2017-07-26 07:31:00,
2017-07-26 03:39:00,77.8,75.4,29.96,East,90,3.1,7.5,93,0.03,,,0.03,Arduino-ESP8266,2017-07-26 07:39:00,
2017-07-26 03:44:00,78.0,75.9,29.96,East,99,2.7,4.7,94,0.03,,,0.03,Arduino-ESP8266,2017-07-26 07:44:00,
2017-07-26 03:52:00,78.0,76.1,29.95,East,85,2.7,6.8,94,0.05,,,0.05,Arduino-ESP8266,2017-07-26 07:52:00,
2017-07-26 04:02:00,77.7,75.8,29.95,ESE,103,3.2,9.0,94,0.05,,,0.05,Arduino-ESP8266,2017-07-26 08:02:00,
2017-07-26 04:07:00,77.8,76.0,29.96,East,94,3.1,5.3,95,0.05,,,0.05,Arduino-ESP8266,2017-07-26 08:07:00,
2017-07-26 04:12:00,77.8,76.1,29.96,East,90,3.3,7.5,95,0.05,,,0.05,Arduino-ESP8266,2017-07-26 08:12:00,
2017-07-26 04:20:00,77.8,76.1,29.96,East,90,3.7,7.2,95,0.00,,,0.05,Arduino-ESP8266,2017-07-26 08:20:00,
2017-07-26 04:34:00,77.6,75.7,29.96,East,81,2.2,5.9,94,0.00,,,0.05,Arduino-ESP8266,2017-07-26 08:34:00,
2017-07-26 04:39:00,77.7,75.8,29.96,East,94,2.1,7.8,94,0.00,,,0.05,Arduino-ESP8266,2017-07-26 08:39:00,
2017-07-26 04:44:00,77.8,75.9,29.96,ENE,73,2.2,4.0,94,0.00,,,0.05,Arduino-ESP8266,2017-07-26 08:44:00,
2017-07-26 04:51:00,77.9,76.0,29.96,East,94,2.7,4.7,94,0.00,,,0.05,Arduino-ESP8266,2017-07-26 08:51:00,
2017-07-26 05:00:00,77.9,76.0,29.96,East,94,2.6,5.9,94,0.00,,,0.05,Arduino-ESP8266,2017-07-26 09:00:00,
2017-07-26 05:06:00,78.0,76.1,29.96,East,94,2.7,5.0,94,0.00,,,0.05,Arduino-ESP8266,2017-07-26 09:06:00,
2017-07-26 05:11:00,78.1,76.1,29.95,ESE,103,3.1,5.6,94,0.00,,,0.05,Arduino-ESP8266,2017-07-26 09:11:00,
2017-07-26 05:17:00,78.2,76.2,29.95,ENE,76,1.9,3.7,94,0.00,,,0.05,Arduino-ESP8266,2017-07-26 09:17:00,
2017-07-26 05:22:00,78.2,76.3,29.95,East,98,3.1,7.5,94,0.00,,,0.05,Arduino-ESP8266,2017-07-26 09:22:00,
2017-07-26 05:27:00,78.2,76.2,29.95,East,81,2.8,5.6,94,0.00,,,0.05,Arduino-ESP8266,2017-07-26 09:27:00,
2017-07-26 05:35:00,78.0,76.0,29.96,East,90,1.9,2.8,94,0.00,,,0.05,Arduino-ESP8266,2017-07-26 09:35:00,
2017-07-26 05:41:00,78.0,76.0,29.96,East,90,1.2,2.8,94,0.00,,,0.05,Arduino-ESP8266,2017-07-26 09:41:00,
2017-07-26 05:46:00,78.1,76.2,29.96,East,85,2.4,5.6,94,0.00,,,0.05,Arduino-ESP8266,2017-07-26 09:46:00,
2017-07-26 05:51:00,78.1,76.2,29.96,East,94,2.1,4.7,94,0.00,,,0.05,Arduino-ESP8266,2017-07-26 09:51:00,
2017-07-26 05:59:00,78.1,76.2,29.96,East,99,4.7,7.2,94,0.00,,,0.05,Arduino-ESP8266,2017-07-26 09:59:00,
2017-07-26 06:05:00,77.8,76.0,29.96,East,85,3.4,5.0,94,0.06,,,0.11,Arduino-ESP8266,2017-07-26 10:05:00,
2017-07-26 06:11:00,77.4,75.6,29.96,East,94,1.8,4.3,95,0.09,,,0.14,Arduino-ESP8266,2017-07-26 10:11:00,
2017-07-26 06:16:00,77.0,75.2,29.97,East,99,1.1,2.2,94,0.09,,,0.14,Arduino-ESP8266,2017-07-26 10:16:00,
2017-07-26 06:22:00,77.3,75.7,29.96,East,90,1.4,2.5,95,0.09,,,0.14,Arduino-ESP8266,2017-07-26 10:22:00,
2017-07-26 06:27:00,78.2,76.8,29.97,East,90,2.0,4.0,96,0.09,,,0.14,Arduino-ESP8266,2017-07-26 10:27:00,
2017-07-26 06:33:00,78.5,76.9,29.96,East,90,2.3,4.0,95,0.09,,,0.14,Arduino-ESP8266,2017-07-26 10:33:00,
2017-07-26 06:38:00,78.6,77.0,29.97,East,90,1.6,3.7,95,0.09,,,0.14,Arduino-ESP8266,2017-07-26 10:38:00,
2017-07-26 06:46:00,78.4,76.7,29.97,East,90,2.4,5.6,95,0.09,,,0.14,Arduino-ESP8266,2017-07-26 10:46:00,
2017-07-26 06:51:00,78.3,76.5,29.97,East,94,1.0,2.8,95,0.09,,,0.14,Arduino-ESP8266,2017-07-26 10:51:00,
2017-07-26 06:58:00,79.0,77.3,29.97,East,90,1.6,3.7,95,0.09,,,0.14,Arduino-ESP8266,2017-07-26 10:58:00,
2017-07-26 07:04:00,79.5,77.7,29.97,ESE,108,2.2,4.3,94,0.00,,,0.14,Arduino-ESP8266,2017-07-26 11:04:00,
2017-07-26 07:09:00,80.3,78.3,29.97,East,94,2.0,4.3,94,0.00,,,0.14,Arduino-ESP8266,2017-07-26 11:09:00,
2017-07-26 07:14:00,80.7,78.4,29.97,East,81,2.0,4.3,93,0.00,,,0.14,Arduino-ESP8266,2017-07-26 11:14:00,
2017-07-26 07:22:00,82.5,79.6,29.97,East,94,3.4,6.2,91,0.00,,,0.14,Arduino-ESP8266,2017-07-26 11:22:00,
2017-07-26 07:28:00,82.4,78.8,29.97,ESE,117,2.3,4.3,89,0.00,,,0.14,Arduino-ESP8266,2017-07-26 11:28:00,
2017-07-26 07:34:00,83.1,79.1,29.97,East,90,1.5,3.1,88,0.00,,,0.14,Arduino-ESP8266,2017-07-26 11:34:00,
2017-07-26 07:39:00,84.3,80.1,29.97,ESE,117,1.7,4.0,88,0.00,,,0.14,Arduino-ESP8266,2017-07-26 11:39:00,
2017-07-26 07:44:00,84.9,79.9,29.97,ESE,121,2.5,4.7,86,0.00,,,0.14,Arduino-ESP8266,2017-07-26 11:44:00,
2017-07-26 07:49:00,85.4,80.2,29.97,ESE,112,2.5,5.0,85,0.00,,,0.14,Arduino-ESP8266,2017-07-26 11:49:00,
2017-07-26 07:54:00,86.2,80.6,29.97,SE,126,2.2,5.6,84,0.00,,,0.14,Arduino-ESP8266,2017-07-26 11:54:00,
2017-07-26 08:00:00,86.9,80.6,29.97,ESE,112,3.4,6.2,82,0.00,,,0.14,Arduino-ESP8266,2017-07-26 12:00:00,
2017-07-26 08:06:00,87.4,80.7,29.98,East,94,3.4,8.4,81,0.00,,,0.14,Arduino-ESP8266,2017-07-26 12:06:00,
2017-07-26 08:12:00,87.6,80.6,29.98,ESE,108,3.2,5.9,80,0.00,,,0.14,Arduino-ESP8266,2017-07-26 12:12:00,
2017-07-26 08:17:00,87.1,79.9,29.98,East,94,3.3,5.0,80,0.00,,,0.14,Arduino-ESP8266,2017-07-26 12:17:00,
2017-07-26 08:22:00,86.5,79.8,29.98,East,99,2.7,6.8,81,0.00,,,0.14,Arduino-ESP8266,2017-07-26 12:22:00,
2017-07-26 08:30:00,86.2,80.2,29.98,East,90,3.5,6.2,83,0.00,,,0.14,Arduino-ESP8266,2017-07-26 12:30:00,
2017-07-26 08:38:00,87.1,80.1,29.98,ENE,76,5.1,11.5,80,0.00,,,0.14,Arduino-ESP8266,2017-07-26 12:38:00,
2017-07-26 08:43:00,87.4,80.1,29.98,East,94,4.4,9.9,79,0.00,,,0.14,Arduino-ESP8266,2017-07-26 12:43:00,
2017-07-26 08:48:00,87.8,80.2,29.98,ESE,108,4.1,6.2,79,0.00,,,0.14,Arduino-ESP8266,2017-07-26 12:48:00,
2017-07-26 08:58:00,88.2,80.1,29.98,East,90,2.7,4.3,77,0.00,,,0.14,Arduino-ESP8266,2017-07-26 12:58:00,
2017-07-26 09:05:00,87.8,79.9,29.98,East,85,3.3,5.9,78,0.00,,,0.14,Arduino-ESP8266,2017-07-26 13:05:00,
2017-07-26 09:10:00,87.7,79.8,29.98,East,90,3.8,6.8,78,0.00,,,0.14,Arduino-ESP8266,2017-07-26 13:10:00,
2017-07-26 09:22:00,88.8,79.9,29.98,East,99,4.1,6.5,75,0.00,,,0.14,Arduino-ESP8266,2017-07-26 13:22:00,
2017-07-26 09:28:00,89.2,80.2,29.98,ESE,108,3.2,7.8,75,0.00,,,0.14,Arduino-ESP8266,2017-07-26 13:28:00,
2017-07-26 09:33:00,88.6,79.5,29.98,East,90,4.7,8.7,74,0.00,,,0.14,Arduino-ESP8266,2017-07-26 13:33:00,
2017-07-26 09:38:00,88.0,79.5,29.98,ESE,121,4.3,8.4,76,0.00,,,0.14,Arduino-ESP8266,2017-07-26 13:38:00,
2017-07-26 09:47:00,89.2,80.7,29.98,East,99,2.3,5.0,76,0.00,,,0.14,Arduino-ESP8266,2017-07-26 13:47:00,
2017-07-26 09:52:00,89.8,81.1,29.98,East,99,2.8,4.7,75,0.00,,,0.14,Arduino-ESP8266,2017-07-26 13:52:00,
2017-07-26 09:58:00,89.9,80.3,29.98,East,90,3.8,7.8,73,0.00,,,0.14,Arduino-ESP8266,2017-07-26 13:58:00,
2017-07-26 10:04:00,89.8,80.2,29.99,East,90,3.9,6.2,73,0.00,,,0.14,Arduino-ESP8266,2017-07-26 14:04:00,
2017-07-26 10:09:00,89.6,79.7,29.98,ESE,103,4.8,9.6,72,0.00,,,0.14,Arduino-ESP8266,2017-07-26 14:09:00,
2017-07-26 10:15:00,89.4,79.5,29.99,East,99,3.6,6.8,72,0.00,,,0.14,Arduino-ESP8266,2017-07-26 14:15:00,
2017-07-26 10:20:00,90.2,80.1,29.99,ESE,117,4.3,6.5,72,0.00,,,0.14,Arduino-ESP8266,2017-07-26 14:20:00,
2017-07-26 10:26:00,90.3,80.3,29.99,East,99,4.8,8.1,72,0.00,,,0.14,Arduino-ESP8266,2017-07-26 14:26:00,
2017-07-26 10:38:00,90.8,80.6,29.99,East,90,3.7,6.2,71,0.00,,,0.14,Arduino-ESP8266,2017-07-26 14:38:00,
2017-07-26 10:44:00,90.3,79.9,29.99,ENE,76,4.6,10.6,71,0.00,,,0.14,Arduino-ESP8266,2017-07-26 14:44:00,
2017-07-26 10:51:00,89.6,80.7,29.99,East,99,3.6,6.2,75,0.00,,,0.14,Arduino-ESP8266,2017-07-26 14:51:00,
2017-07-26 11:00:00,90.0,79.8,29.99,East,94,3.3,5.3,71,0.00,,,0.14,Arduino-ESP8266,2017-07-26 15:00:00,
2017-07-26 11:06:00,90.4,79.7,29.99,ESE,103,3.1,5.6,70,0.00,,,0.14,Arduino-ESP8266,2017-07-26 15:06:00,
2017-07-26 11:11:00,90.8,80.3,29.99,East,81,3.6,7.5,70,0.00,,,0.14,Arduino-ESP8266,2017-07-26 15:11:00,
2017-07-26 11:16:00,90.7,80.1,29.99,ENE,76,3.5,6.2,70,0.00,,,0.14,Arduino-ESP8266,2017-07-26 15:16:00,
2017-07-26 11:24:00,90.9,80.2,29.99,East,94,4.3,6.5,70,0.00,,,0.14,Arduino-ESP8266,2017-07-26 15:24:00,
2017-07-26 11:31:00,90.2,79.3,29.98,East,90,4.9,8.4,69,0.00,,,0.14,Arduino-ESP8266,2017-07-26 15:31:00,
2017-07-26 11:36:00,90.3,79.4,29.98,ENE,58,5.8,11.8,69,0.00,,,0.14,Arduino-ESP8266,2017-07-26 15:36:00,
2017-07-26 11:41:00,89.8,78.8,29.98,ENE,76,4.3,13.4,69,0.00,,,0.14,Arduino-ESP8266,2017-07-26 15:41:00,
2017-07-26 11:49:00,90.4,79.0,29.98,ESE,103,3.2,5.3,68,0.00,,,0.14,Arduino-ESP8266,2017-07-26 15:49:00,
2017-07-26 11:57:00,90.9,79.7,29.98,East,85,4.2,7.2,68,0.00,,,0.14,Arduino-ESP8266,2017-07-26 15:57:00,
2017-07-26 12:04:00,91.2,79.9,29.98,East,90,3.7,6.2,68,0.00,,,0.14,Arduino-ESP8266,2017-07-26 16:04:00,
2017-07-26 12:16:00,91.4,79.8,29.98,East,99,2.4,4.7,67,0.00,,,0.14,Arduino-ESP8266,2017-07-26 16:16:00,
2017-07-26 12:21:00,91.5,80.0,29.97,ESE,103,2.3,3.7,67,0.00,,,0.14,Arduino-ESP8266,2017-07-26 16:21:00,
2017-07-26 12:26:00,91.2,79.7,29.97,East,94,5.1,10.2,68,0.00,,,0.14,Arduino-ESP8266,2017-07-26 16:26:00,
2017-07-26 12:33:00,91.0,80.0,29.97,SE,126,3.0,4.7,69,0.00,,,0.14,Arduino-ESP8266,2017-07-26 16:33:00,
2017-07-26 12:40:00,91.3,80.0,29.97,ESE,108,3.2,7.8,68,0.00,,,0.14,Arduino-ESP8266,2017-07-26 16:40:00,
2017-07-26 12:45:00,91.2,79.9,29.97,ESE,103,3.7,8.4,68,0.00,,,0.14,Arduino-ESP8266,2017-07-26 16:45:00,
2017-07-26 12:50:00,91.5,80.2,29.97,ESE,103,3.2,6.2,68,0.00,,,0.14,Arduino-ESP8266,2017-07-26 16:50:00,
2017-07-26 13:01:00,92.2,80.7,29.96,ESE,117,2.7,4.7,68,0.00,,,0.14,Arduino-ESP8266,2017-07-26 17:01:00,
2017-07-26 13:06:00,92.2,80.5,29.96,ESE,103,3.0,5.0,67,0.00,,,0.14,Arduino-ESP8266,2017-07-26 17:06:00,
2017-07-26 13:12:00,92.6,80.7,29.96,East,81,3.8,5.6,66,0.00,,,0.14,Arduino-ESP8266,2017-07-26 17:12:00,
2017-07-26 13:17:00,91.5,80.1,29.96,East,94,3.5,6.2,68,0.00,,,0.14,Arduino-ESP8266,2017-07-26 17:17:00,
2017-07-26 13:24:00,91.7,79.9,29.96,ESE,103,3.7,8.7,67,0.00,,,0.14,Arduino-ESP8266,2017-07-26 17:24:00,
2017-07-26 13:29:00,90.9,79.7,29.95,East,81,5.2,9.3,68,0.00,,,0.14,Arduino-ESP8266,2017-07-26 17:29:00,
2017-07-26 13:35:00,90.3,79.7,29.95,ENE,76,2.5,5.0,70,0.00,,,0.14,Arduino-ESP8266,2017-07-26 17:35:00,
2017-07-26 13:42:00,90.1,79.4,29.95,East,90,2.9,5.0,70,0.00,,,0.14,Arduino-ESP8266,2017-07-26 17:42:00,
2017-07-26 13:50:00,88.6,79.2,29.95,East,94,3.0,5.0,74,0.00,,,0.14,Arduino-ESP8266,2017-07-26 17:50:00,
2017-07-26 13:55:00,87.9,79.0,29.95,ESE,108,3.0,5.0,75,0.00,,,0.14,Arduino-ESP8266,2017-07-26 17:55:00,
2017-07-26 14:03:00,87.1,79.0,29.95,East,90,2.8,5.6,77,0.00,,,0.14,Arduino-ESP8266,2017-07-26 18:03:00,
2017-07-26 14:08:00,88.8,80.1,29.95,ESE,117,2.9,5.0,75,0.00,,,0.14,Arduino-ESP8266,2017-07-26 18:08:00,
2017-07-26 14:14:00,90.1,80.4,29.95,ESE,102,3.3,8.1,73,0.00,,,0.14,Arduino-ESP8266,2017-07-26 18:14:00,
2017-07-26 14:19:00,88.2,79.4,29.95,East,89,5.7,10.6,75,0.00,,,0.14,Arduino-ESP8266,2017-07-26 18:19:00,
2017-07-26 14:25:00,86.7,78.9,29.95,ESE,108,3.0,5.6,78,0.00,,,0.14,Arduino-ESP8266,2017-07-26 18:25:00,
2017-07-26 14:31:00,86.4,79.1,29.95,East,99,2.5,4.3,79,0.00,,,0.14,Arduino-ESP8266,2017-07-26 18:31:00,
2017-07-26 14:36:00,86.9,79.6,29.94,ESE,108,1.9,3.1,79,0.00,,,0.14,Arduino-ESP8266,2017-07-26 18:36:00,